This is the latest recevied weather packets stored in our database for station/object KC0RKM-13. If no packets are shown the sender has not sent any weather packets the latest 10 day(s).
| Time | Temp. | Humidity | Pressure | Rain* | Wind** | Luminosity | Snow |
|---|---|---|---|---|---|---|---|
| 1787965804 | 27.78° C | 49% | 1016.6 hPa | 0 mm | - | - | - |
| 1787965204 | 27.78° C | 49% | 1016.5 hPa | 0 mm | - | - | - |
| 1787964604 | 28.33° C | 48% | 1016.6 hPa | 0 mm | - | - | - |
| 1787964003 | 28.89° C | 47% | 1016.5 hPa | 0 mm | - | - | - |
| 1787963404 | 29.44° C | 46% | 1016.5 hPa | 0 mm | - | - | - |
| 1787962804 | 30° C | 44% | 1016.6 hPa | 0 mm | - | - | - |
| 1787962203 | 30° C | 43% | 1016.5 hPa | 0 mm | - | - | - |
| 1787961603 | 30° C | 41% | 1016.5 hPa | 0 mm | - | - | - |
| 1787961003 | 30.56° C | 42% | 1016.5 hPa | 0 mm | - | - | - |
| 1787960404 | 30.56° C | 41% | 1016.7 hPa | 0 mm | - | - | - |
| 1787959804 | 30.56° C | 42% | 1016.6 hPa | 0 mm | - | - | - |
| 1787959203 | 31.11° C | 40% | 1016.4 hPa | 0 mm | - | - | - |
| 1787958604 | 31.11° C | 40% | 1016.6 hPa | 0 mm | - | - | - |
| 1787958004 | 31.11° C | 39% | 1016.6 hPa | 0 mm | - | - | - |
| 1787957404 | 31.11° C | 40% | 1016.8 hPa | 0 mm | - | - | - |
| 1787956803 | 31.11° C | 39% | 1016.7 hPa | 0 mm | - | - | - |
| 1787956203 | 30.56° C | 41% | 1016.8 hPa | 0 mm | - | - | - |
| 1787955603 | 31.11° C | 40% | 1016.9 hPa | 0 mm | - | - | - |
| 1787955004 | 31.11° C | 40% | 1017 hPa | 0 mm | - | - | - |
| 1787954403 | 31.11° C | 41% | 1017.1 hPa | 0 mm | - | - | - |
| 1787953803 | 31.11° C | 40% | 1017.1 hPa | 0 mm | - | - | - |
| 1787953204 | 31.11° C | 41% | 1017 hPa | 0 mm | - | - | - |
| 1787952604 | 31.67° C | 40% | 1017.2 hPa | 0 mm | - | - | - |
| 1787952004 | 31.11° C | 38% | 1017.2 hPa | 0 mm | - | - | - |
| 1787951403 | 31.11° C | 38% | 1017.5 hPa | 0 mm | - | - | - |
* Rain latest hour (hover to see other rain measurements)
** Current wind speed in m/s (hover to see current wind gust speed)